Volver al catálogo

STARLINK-35093

ActivoComunicacionesVLEO
NORAD 65478·PAYLOAD·🇺🇸 United States

Lanzado Sep 3, 2025 desde Cape Canaveral Space Force Station

Loading…

Próximos Pases (próximas 24 horas)

TLE

ActualizadoSource: CelesTrak SupGP

Época: Sep 14, 2026, 21:38 UTC

1 65478C 25195W   26257.90187500 -.00027541  00000+0 -88576-3 0  2578
2 65478  53.1580  97.7605 0001315  86.7813 312.3739 15.31712012    13

Sigue STARLINK-35093 en tiempo real con AllMySat

Download on the App Store